Tracking 20719 objects as of 24-May-2020
HD Live streaming from Space Station
objects crossing your sky now

OPS 5960 DEB

Track OPS 5960 DEB now!


NORAD ID: 43000
Int'l Code: 1970-093D
Perigee: 25,562.4 km
Apogee: 36,292.9 km
Inclination: 10.1 °
Period: 1,194.8 minutes
Semi major axis: 37298 km
RCS: Unknown
Launch date: November 6, 1970
Source: United States (US)
Launch site: AIR FORCE EASTERN TEST RANGE (AFETR)

Note: This is SATELLITE DEBRIS
aabbcc
Your satellite tracking list
Your tracking list is empty




NASA's NSSDC Master Catalog

Two Line Element Set (TLE):
1 43000U 70093D   19004.28763516 -.00000138 +00000-0 +00000-0 0  9991
2 43000 010.1458 090.8028 1438462 158.6474 207.8428 01.20521162012822
Source of the keplerian elements: AFSPC